This is the latest recevied weather packets stored in our database for station/object KE3HG-2. If no packets are shown the sender has not sent any weather packets the latest 10 day(s).
| Time | Temp. | Humidity | Pressure | Rain* | Wind** | Luminosity | Snow |
|---|---|---|---|---|---|---|---|
| 1777689742 | 12.78° C | 47% | 757.5 hPa | 0 mm | - | - | - |
| 1777689142 | 12.78° C | 46% | 757.5 hPa | 0 mm | - | - | - |
| 1777688542 | 12.78° C | 46% | 757.5 hPa | 0 mm | - | - | - |
| 1777687905 | 12.78° C | 46% | 757.5 hPa | 0 mm | - | - | - |
| 1777687304 | 12.78° C | 45% | 757.5 hPa | 0 mm | - | - | - |
| 1777686704 | 12.78° C | 45% | 757.5 hPa | 0 mm | - | - | - |
| 1777685727 | 13.33° C | 46% | 757.5 hPa | 0 mm | - | - | - |
| 1777685127 | 13.89° C | 45% | 757.5 hPa | 0 mm | - | - | - |
| 1777684527 | 13.89° C | 39% | 757.5 hPa | 0 mm | - | - | - |
| 1777683555 | 13.89° C | 39% | 757.5 hPa | 0 mm | - | - | - |
| 1777682954 | 13.89° C | 38% | 757.5 hPa | 0 mm | - | - | - |
| 1777682354 | 14.44° C | 38% | 757.5 hPa | 0 mm | - | - | - |
| 1777681396 | 14.44° C | 39% | 757.5 hPa | 0 mm | - | - | - |
| 1777680796 | 14.44° C | 39% | 757.5 hPa | 0 mm | - | - | - |
| 1777680195 | 14.44° C | 38% | 757.5 hPa | 0 mm | - | - | - |
| 1777679255 | 15° C | 39% | 757.5 hPa | 0 mm | - | - | - |
| 1777678655 | 15.56° C | 37% | 757.5 hPa | 0 mm | - | - | - |
| 1777678054 | 15.56° C | 34% | 757.5 hPa | 0 mm | - | - | - |
| 1777677055 | 16.11° C | 34% | 757.5 hPa | 0 mm | - | - | - |
| 1777676455 | 16.67° C | 35% | 757.5 hPa | 0 mm | - | - | - |
| 1777675855 | 16.67° C | 34% | 757.5 hPa | 0 mm | - | - | - |
| 1777674887 | 16.67° C | 34% | 757.5 hPa | 0 mm | - | - | - |
| 1777674288 | 16.67° C | 35% | 757.5 hPa | 0 mm | - | - | - |
| 1777673687 | 17.22° C | 32% | 757.5 hPa | 0 mm | - | - | - |
| 1777672716 | 17.22° C | 32% | 757.5 hPa | 0 mm | - | - | - |
* Rain latest hour (hover to see other rain measurements)
** Current wind speed in m/s (hover to see current wind gust speed)